1305504032032,17.2018
1305504092032,17.2816
1305504152032,17.2412
1305504212032,17.2483
1305504272032,17.2373
1305504332032,17.2238
1305504392032,17.2186
1305504452032,17.2431
1305504512032,17.2621
1305504572032,17.2715
1305504632032,17.2445
1305504692032,17.2466
1305504752032,17.2951
1305504812032,17.3463
1305504872032,17.3164
1305504932032,17.2986
1305504992032,17.2729
1305505052032,17.3153
1305505112032,17.2755
1305505172032,17.3238
1305505232032,17.3223
1305505292032,17.2780
1305505352032,17.3222
1305505412032,17.3073
1305505472032,17.3457
1305505532032,17.3176
1305505592032,17.3503
1305505652032,17.3113
1305505712032,17.3355
1305505772032,17.3422
1305505832032,17.3574
1305505892032,17.3627
1305505952032,17.3096
1305506012032,17.3302
1305506072032,17.3168
1305506132032,17.3632
1305506192032,17.3466
1305506252032,17.2802
1305506312032,17.2925
1305506372032,17.3572
1305506432032,17.3693
1305506492032,17.3485
1305506552032,17.3200
1305506612032,17.3618
1305506672032,17.3634
1305506732032,17.3388
1305506792032,17.3566
1305506852032,17.3218
1305506912032,17.3487
1305506972032,17.3057
1305507032032,17.3406
1305507092032,17.3635
1305507152032,17.4160
1305507212032,17.3276
1305507272032,17.3278
1305507332032,17.3149
1305507392032,17.3339
1305507452032,17.3599
1305507512032,17.3786
1305507572032,17.3482
1305507632043,17.3760
1305507692043,17.3470
1305507752043,17.3865
1305507812043,17.3725
1305507872043,17.3576
1305507932043,17.3586
1305507992043,17.3849
1305508052043,17.3736
1305508112043,17.3670
1305508172043,17.3758
1305508232043,17.4254
1305508292043,17.2851
1305508832043,17.3391
1305508892043,17.3307
1305508952043,17.3780
1305509012043,17.3330
1305509072043,17.3322
1305509132043,17.3336
1305509192043,17.3654
1305509252043,17.3155
1305509312043,17.3232
1305509372043,17.3512
1305509432043,17.3441
1305509492043,17.3513
1305509552043,17.3134
1305509612043,17.3507
1305509672043,17.2959
1305509732043,17.2660
1305509792043,17.3438
1305509852043,17.3009
1305509912043,17.2881
1305509972043,17.3498
1305510032043,17.3445
1305510092043,17.3439
1305510152043,17.3300
1305510212043,17.3064
1305510272043,17.3041
1305510332043,17.3334
1305510392043,17.3578
1305510452043,17.3894
1305510512043,17.3869
1305510572043,17.3491
1305510632043,17.3605
1305510692043,17.3176
1305510752043,17.3855
1305510812043,17.3504
1305510872043,17.3162
1305510932043,17.3615
1305510992043,17.3983
1305511052043,17.3528
1305511112043,17.3222
1305511172043,17.3254
1305511232054,17.4004
1305511292054,17.3915
1305511352054,17.3568
1305511412054,17.3152
1305511472054,17.3555
1305511532054,17.2970
1305511592054,17.3595
1305511652054,17.3399
1305511712054,17.3388
1305511772054,17.2954
1305511832054,17.3310
1305511892054,17.2940
1305511952054,17.2869
1305512012054,17.3035
1305512072054,17.2628
1305512132054,17.3628
1305512192054,17.2740
1305512252054,17.2839
1305512312054,17.2593
1305512372054,17.2878
1305512432054,17.2928
1305512492054,17.2697
1305512552054,17.2698
1305512612054,17.2139
1305512672054,17.2325
1305512732054,17.2645
1305512792054,17.2974
1305512852054,17.2881
1305512912054,17.2666
1305512972054,17.3315
1305513032054,17.2561
1305513092054,17.2816
1305513152054,17.3066
1305513212054,17.2951
1305513272054,17.3069
1305513332054,17.3374
1305513392054,17.3275
1305513452054,17.3173
1305513512054,17.3422
1305513572054,17.3142
1305513632054,17.3779
1305513692054,17.3049
1305513752054,17.3534
1305513812054,17.3358
1305513872054,17.3263
1305513932054,17.3112
1305513992054,17.3366
1305514052054,17.3080
1305514112054,17.3393
1305514172054,17.3082
1305514232054,17.2977
1305514292054,17.2779
1305514352054,17.2526
1305514412054,17.3174
1305514472054,17.3053
1305514532054,17.2866
1305514592054,17.2495
1305514652054,17.2946
1305514712054,17.2461
1305514772054,17.2340
1305514832065,17.2890
1305514892065,17.2885
1305514952065,17.2659
1305515012065,17.2507
1305515072065,17.2720
1305515132065,17.2984
1305515192065,17.2902
1305515252065,17.2734
1305515312065,17.3432
1305515372065,17.3551
1305515432065,17.2990
1305515492065,17.3104
1305515552065,17.2984
1305515612065,17.3328
1305515672065,17.2923
1305515732065,17.2986
1305515792065,17.3027
1305515852065,17.3382
1305515912065,17.3646
1305515972065,17.3073
1305516032065,17.3302
1305516092065,17.3177
1305516152065,17.3398
1305516212065,17.2888
1305516272065,17.3144
1305516332065,17.3003
1305516392065,17.3022
1305516452065,17.3079
1305516512065,17.3182
1305516572065,17.2894
1305516632065,17.2964
1305516692065,17.2532
1305516752065,17.2798
1305516812065,17.3111
1305516872065,17.2667
1305516932065,17.3009
1305516992065,17.2490
1305517052065,17.3270
1305517112065,17.3221
1305517172065,17.3138
1305517232065,17.2818
1305517292065,17.3141
1305517352065,17.3303
1305517412065,17.2677
1305517472065,17.2763
1305517532065,17.2563
1305517592065,17.3107
1305517652065,17.2696
1305517712065,17.2990
1305517772065,17.3004
1305517832065,17.2924
1305517892065,17.2694
1305517952065,17.3425
1305518012065,17.3204
1305518072065,17.3109
1305518132065,17.3396
1305518192065,17.3694
1305518252065,17.3898
1305518312065,17.4375
1305518372065,17.3548
1305518432075,17.3606
1305518492075,17.3388
1305518552075,17.3635
1305518612075,17.4316
1305518672075,17.3701
1305518732075,17.4383
1305518792075,17.5003
1305518852075,17.3663
1305518912075,17.3878
1305518972075,17.3853
1305519032075,17.3452
1305519092075,17.2928
1305519152075,17.3264
1305519212075,17.3676
1305519272075,17.3419
1305519332075,17.3739
1305519392075,17.3593
1305519452075,17.3518
1305519512075,17.3297
1305519572075,17.3502
1305519632075,17.3072
1305519692075,17.3154
1305519752075,17.2526
1305519812075,17.3111
1305519872075,17.3134
1305519932075,17.3037
1305519992075,17.3337
1305520052075,17.3162
1305520112075,17.2959
1305520172075,17.3396
1305520232075,17.3308
1305520292075,17.3733
1305520352075,17.3165
1305520412075,17.3458
1305520472075,17.3410
1305520532075,17.3573
1305520592075,17.4234
1305520652075,17.3755
1305520712075,17.3477
1305520772075,17.3569
1305520832075,17.3331
1305520892075,17.3352
1305520952075,17.3121
1305521012075,17.3130
1305521072075,17.3510
1305521132075,17.3023
1305521192075,17.2929
1305521252075,17.4186
1305521312075,17.3146
1305521372075,17.3373
1305521432075,17.3353
1305521492075,17.3060
1305521552075,17.2930
1305521612075,17.3023
1305521672075,17.3305
1305521732075,17.2991
1305521792075,17.3128
1305521852075,17.3579
1305521912075,17.3417
1305521972075,17.3592
1305522032086,17.3372
1305522092086,17.3142
1305522152086,17.3887
1305522212086,17.3363
1305522272086,17.3340
1305522332086,17.3378
1305522392086,17.3645
1305522452086,17.3777
1305522512086,17.3547
1305522572086,17.3715
1305522632086,17.3323
1305522692086,17.3346
1305522752086,17.3386
1305522812086,17.3827
1305522872086,17.3786
1305522932086,17.3725
1305522992086,17.3726
1305523052086,17.3501
1305523112086,17.3844
1305523172086,17.3883
1305523232086,17.3583
1305523292086,17.3396
1305523352086,17.3660
1305523412086,17.3377
1305523472086,17.3304
1305523532086,17.3112
1305523592086,17.3234
1305523652086,17.3383
1305523712086,17.3539
1305523772086,17.3120
1305523832086,17.3375
1305523892086,17.2852
1305523952086,17.2747
1305524012086,17.3293
1305524072086,17.3512
1305524132086,17.3506
1305524192086,17.3258
1305524252086,17.2969
1305524312086,17.3881
1305524372086,17.2995
1305524432086,17.2916
1305524492086,17.3479
1305524552086,17.3230
1305524612086,17.3510
1305524672086,17.3519
1305524732086,17.3182
1305524792086,17.3505
1305524852086,17.3137
1305524912086,17.2678
1305524972086,17.3075
1305525032086,17.3622
1305525092086,17.3039
1305525152086,17.3225
1305525212086,17.3356
1305525272086,17.2772
1305525332086,17.3400
1305525392086,17.3174
1305525452086,17.2666
1305525512086,17.3074
1305525572086,17.3001
1305525632096,17.2693
1305525692096,17.2730
1305525752096,17.2738
1305525812096,17.3131
1305525872096,17.3286
1305525932096,17.2983
1305525992096,17.3168
1305526052096,17.2245
1305526112096,17.2656
1305526172096,17.2804
1305526232096,17.3208
1305526292096,17.3260
1305526352096,17.2623
1305526412096,17.3203
1305526472096,17.3014
1305526532096,17.2998
1305526592096,17.2779
1305526652096,17.3189
1305526712096,17.3178
1305526772096,17.3526
1305526832096,17.3096
1305526892096,17.3046
1305526952096,17.3294
1305527012096,17.2751
1305527072096,17.2872
1305527132096,17.3091
1305527192096,17.2980
1305527252096,17.2724
1305527312096,17.3055
1305527372096,17.3168
1305527432096,17.3253
1305527492096,17.3461
1305527552096,17.2903
1305527612096,17.3162
1305527672096,17.3883
1305527732096,17.3249
1305527792096,17.3326
1305527852096,17.3340
1305527912096,17.3398
1305527972096,17.3123
1305528032096,17.3518
1305528092096,17.3610
1305528152096,17.3698
1305528212096,17.3677
1305528272096,17.3510
1305528332096,17.3275
1305528392096,17.4018
1305528452096,17.3478
1305528512096,17.3194
1305528572096,17.3568
1305528632096,17.3544
1305528692096,17.3546
1305528752096,17.3126
1305528812096,17.4236
1305528872096,17.3553
1305528932096,17.3796
1305528992096,17.3473
1305529052096,17.3733
1305529112096,17.3624
1305529172096,17.3379
1305529232106,17.3123
1305529292106,17.3554
1305529352106,17.3313
1305529412106,17.3671
1305529472106,17.3417
1305529532106,17.3422
1305529592106,17.3222
1305529652106,17.3447
1305529712106,17.3859
1305529772106,17.3545
1305529832106,17.3272
1305529892106,17.3069
1305529952106,17.3373
1305530012106,17.3532
1305530072106,17.2775
1305530132106,17.3532
1305530192106,17.3363
1305530252106,17.3291
1305530312106,17.3187
1305530372106,17.3017
1305530432106,17.3361
1305530492106,17.3647
1305530552106,17.2456
1305530612106,17.2886
1305530672106,17.2797
1305530732106,17.3625
1305530792106,17.3434
1305530852106,17.3426
1305530912106,17.3643
1305530972106,17.3283
1305531032106,17.3246
1305531092106,17.3268
1305531152106,17.3364
1305531212106,17.3063
1305531272106,17.2900
1305531332106,17.2826
1305531392106,17.2889
1305531452106,17.2884
1305531512106,17.3227
1305531572106,17.2894
1305531632106,17.2885
1305531692106,17.2637
1305531752106,17.2390
1305531812106,17.2756
1305531872106,17.2546
1305531932106,17.2650
1305531992106,17.2403
1305532052106,17.2767
1305532112106,17.2394
1305532172106,17.2802
1305532232106,17.2853
1305532292106,17.2912
1305532352106,17.2929
1305532412106,17.3055
1305532472106,17.2803
1305532532106,17.2903
1305532592106,17.2451
1305532652106,17.3003
1305532712106,17.2845
1305532772106,17.2473
1305532832117,17.2620
1305532892117,17.2924
1305532952117,17.3113
1305533012117,17.2922
1305533072117,17.3308
1305533132117,17.2815
1305533192117,17.3138
1305533252117,17.3062
1305533312117,17.2688
1305533372117,17.2572
1305533432117,17.2939
1305533492117,17.2939
1305533552117,17.2730
1305533612117,17.2485
1305533672117,17.2789
1305533732117,17.2701
1305533792117,17.2860
1305533852117,17.3435
1305533912117,17.2599
1305533972117,17.2699
1305534032117,17.2504
1305534092117,17.2500
1305534152117,17.2770
1305534212117,17.2957
1305534272117,17.2978
1305534332117,17.3030
1305534392117,17.2746
1305534452117,17.2748
1305534512117,17.3107
1305534572117,17.2915
1305534632117,17.2881
1305534692117,17.2905
1305534752117,17.2905
1305534812117,17.3123
1305534872117,17.2863
1305534932117,17.3095
1305534992117,17.3166
1305535052117,17.2811
1305535112117,17.3533
1305535172117,17.3229
1305535232117,17.3038
1305535292117,17.2716
1305535352117,17.3469
1305535412117,17.2983
1305535472117,17.3197
1305535532117,17.3188
1305535592117,17.3401
1305535652117,17.2855
1305535712117,17.3247
1305535772117,17.2943
1305535832117,17.3256
1305535892117,17.3151
1305535952117,17.3710
1305536012117,17.3586
1305536072117,17.3849
1305536132117,17.3715
1305536192117,17.3062
1305536252117,17.3575
1305536312117,17.3306
1305536372117,17.3509
1305536432127,17.3788
1305536492127,17.3664
1305536552127,17.3887
1305536612127,17.3652
1305536672127,17.3386
1305536732127,17.3586
1305536792127,17.3599
1305536852127,17.3380
1305536912127,17.3593
1305536972127,17.3410
1305537032127,17.3310
1305537092127,17.2808
1305537152127,17.3381
1305537212127,17.3120
1305537272127,17.3464
1305537332127,17.3406
1305537392127,17.3382
1305537452127,17.3074
1305537512127,17.2749
1305537572127,17.3121
1305537632127,17.3037
1305537692127,17.3050
1305537752127,17.3005
1305537812127,17.2679
1305537872127,17.2704
1305537932127,17.2887
1305537992127,17.2461
1305538052127,17.2610
1305538112127,17.2964
1305538172127,17.3227
1305538232127,17.3255
1305538292127,17.2948
1305538352127,17.2828
1305538412127,17.2848
1305538472127,17.3257
1305538532127,17.3303
1305538592127,17.3076
1305538652127,17.2928
1305538712127,17.2755
1305538772127,17.3037
1305538832127,17.2890
1305538892127,17.2602
1305538952127,17.2456
1305539012127,17.2743
1305539072127,17.3305
1305539132127,17.2713
1305539192127,17.2686
1305539252127,17.2639
1305539312127,17.2855
1305539372127,17.2663
1305539432127,17.3065
1305539492127,17.3112
1305539552127,17.2887
1305539612127,17.2723
1305539672127,17.3006
1305539732127,17.2999
1305539792127,17.3149
1305539852127,17.2517
1305539912127,17.2253
1305539972127,17.2358
1305540032137,17.2554
1305540092137,17.2681
1305540152137,17.2877
1305540212137,17.2590
1305540272137,17.2520
1305540332137,17.2932
1305540392137,17.2675
1305540452137,17.2352
1305540512137,17.2367
1305540572137,17.2796
1305540632137,17.2058
1305540692137,17.2458
1305540752137,17.2009
1305540812137,17.2401
1305540872137,17.2562
1305540932137,17.2433
1305540992137,17.2241
1305541052137,17.1749
1305541112137,17.1970
1305541172137,17.2389
1305541232137,17.1828
1305541292137,17.1737
1305541352137,17.1655
1305541412137,17.1783
1305541472137,17.1705
1305541532137,17.2163
1305541592137,17.1620
1305541652137,17.2078
1305541712137,17.1816
1305541772137,17.1932
1305541832137,17.1615
1305541892137,17.1629
1305541952137,17.1858
1305542012137,17.1714
1305542072137,17.2013
1305542132137,17.1780
1305542192137,17.2457
1305542252137,17.2576
1305542312137,17.2279
1305542372137,17.2160
1305542432137,17.2355
1305542492137,17.2315
1305542552137,17.1933
1305542612137,17.1913
1305542672137,17.2173
1305542732137,17.2014
1305542792137,17.1974
1305542852137,17.2409
1305542912137,17.2807
1305542972137,17.2377
1305543032137,17.2689
1305543092137,17.2821
1305543152137,17.2843
1305543212137,17.2408
1305543272137,17.3157
1305543332137,17.2510
1305543392137,17.2832
1305543452137,17.2630
1305543512137,17.2551
1305543572137,17.2884
1305543632147,17.2995
1305543692147,17.2517
1305543752147,17.2790
1305543812147,17.2493
1305543872147,17.2594
1305543932147,17.2451
1305543992147,17.2511
1305544052147,17.2709
1305544112147,17.2674
1305544172147,17.2938
1305544232147,17.3137
1305544292147,17.2818
1305544352147,17.2715
1305544412147,17.2621
1305544472147,17.2313
1305544532147,17.2387
1305544592147,17.2892
1305544652147,17.2582
1305544712147,17.2525
1305544772147,17.2630
1305544832147,17.3093
1305544892147,17.2569
1305544952147,17.2645
1305545012147,17.2414
1305545072147,17.2409
1305545132147,17.2307
1305545192147,17.2643
1305545252147,17.2832
1305545312147,17.2662
1305545372147,17.2947
1305545432147,17.2548
1305545492147,17.3450
1305545552147,17.2992
1305545612147,17.2589
1305545672147,17.2420
1305545732147,17.2687
1305545792147,17.2318
1305545852147,17.2342
1305545912147,17.2112
1305545972147,17.2105
1305546032147,17.1917
1305546092147,17.2082
1305546152147,17.2086
1305546212147,17.2137
1305546272147,17.2165
1305546332147,17.2215
1305546392147,17.2791
1305546452147,17.2966
1305546512147,17.2505
1305546572147,17.2714
1305546632147,17.2713
1305546692147,17.2689
1305546752147,17.2573
1305546812147,17.2276
1305546872147,17.2136
1305546932147,17.2060
1305546992147,17.2681
1305547052147,17.2267
1305547112147,17.2638
1305547172147,17.2359
1305547232157,17.2141
1305547292157,17.2203
1305547352157,17.2495
1305547412157,17.2096
1305547472157,17.2721
1305547532157,17.2503
1305547592157,17.1966
1305547652157,17.2689
1305547712157,17.2218
1305547772157,17.2125
1305547832157,17.2248
1305547892157,17.2792
1305547952157,17.2785
1305548012157,17.2683
1305548072157,17.2594
1305548132157,17.2967
1305548192157,17.2633
1305548252157,17.2466
1305548312157,17.2591
1305548372157,17.2180
1305548432157,17.2106
1305548492157,17.2488
1305548552157,17.2423
1305548612157,17.2519
1305548672157,17.2686
1305548732157,17.2762
1305548792157,17.2334
1305548852157,17.2877
1305548912157,17.2872
1305548972157,17.2961
1305549032157,17.2956
1305549092157,17.2752
1305549152157,17.3102
1305549212157,17.3275
1305549272157,17.3025
1305549332157,17.3042
1305549392157,17.2890
1305549452157,17.3192
1305549512157,17.3288
1305549572157,17.3337
1305549632157,17.2906
1305549692157,17.2115
1305549752157,17.2881
1305549812157,17.2502
1305549872157,17.2894
1305549932157,17.3427
1305549992157,17.2413
1305550052157,17.2450
1305550112157,17.2720
1305550172157,17.2927
1305550232157,17.2705
1305550292157,17.2869
1305550352157,17.3074
1305550412157,17.2654
1305550472157,17.3343
1305550532157,17.3021
1305550592157,17.2991
1305550652157,17.3084
1305550712157,17.2843
1305550772157,17.2794
1305550832167,17.2497
1305550892167,17.2562
1305550952167,17.2601
1305551012168,17.2726
1305551072168,17.2734
1305551132168,17.2354
1305551192168,17.2473
1305551252168,17.2739
1305551312167,17.2708
1305551372167,17.2709
1305551432167,17.2278
1305551492167,17.2438
1305551552167,17.2749
1305551612167,17.2619
1305551672167,17.2813
1305551732167,17.2775
1305551792167,17.2891
1305551852167,17.2910
1305551912167,17.2642
1305551972167,17.2913
1305552032167,17.2764
1305552092167,17.2073
1305552152167,17.2781
1305552212167,17.2490
1305552272167,17.2691
1305552332167,17.2703
1305552392168,17.2346
1305552452168,17.3276
1305552512168,17.2401
1305552572168,17.2758
1305552632168,17.2798
1305552692167,17.2427
1305552752167,17.2799
1305552812167,17.2751
1305552872167,17.2489
1305552932167,17.2680
1305552992167,17.3159
1305553052167,17.2584
1305553112167,17.2659
1305553172167,17.2008
1305553232167,17.2063
1305553292167,17.2729
1305553352167,17.2427
1305553412167,17.2393
1305553472167,17.2536
1305553532167,17.2665
1305553592167,17.2219
1305553652167,17.2316
1305553712168,17.2509
1305553772168,17.2557
1305553832168,17.2110
1305553892168,17.2456
1305553952168,17.2352
1305554012167,17.2626
1305554072167,17.2568
1305554132167,17.2430
1305554192167,17.2688
1305554252167,17.2830
1305554312167,17.2477
1305554372167,17.2821
1305554432177,17.2302
1305554492177,17.2130
1305554552177,17.2252
1305554612177,17.2616
1305554672177,17.2668
1305554732177,17.2242
1305554792177,17.2506
1305554852177,17.2535
1305554912177,17.2263
1305554972177,17.2187
1305555032177,17.2634
1305555092177,17.1781
1305555152177,17.2383
1305555212177,17.2206
1305555272177,17.2234
1305555332177,17.2554
1305555392177,17.2453
1305555452177,17.2381
1305555512177,17.2032
1305555572177,17.1857
1305555632177,17.1981
1305555692177,17.2170
1305555752177,17.1853
1305555812177,17.1961
1305555872177,17.2127
1305555932177,17.1639
1305555992177,17.1511
1305556052177,17.2260
1305556112177,17.2509
1305556172177,17.2467
1305556232177,17.2243
1305556292177,17.2522
1305556352177,17.2334
1305556412177,17.2436
1305556472177,17.2395
1305556532177,17.2256
1305556592177,17.2131
1305556652177,17.2464
1305556712177,17.1725
1305556772177,17.2023
1305556832177,17.1478
1305556892177,17.1768
1305556952177,17.1697
1305557012177,17.1679
1305557072177,17.1688
1305557132177,17.1496
1305557192177,17.1909
1305557252177,17.2177
1305557312177,17.2042
1305557372177,17.2449
1305557432177,17.1804
1305557492177,17.2135
1305557552177,17.2309
1305557612177,17.1969
1305557672177,17.2089
1305557732177,17.1708
1305557792177,17.1738
1305557852177,17.2179
1305557912177,17.2167
1305557972177,17.2378
1305558032187,17.2348
1305558092187,17.1824
1305558152187,17.2092
1305558212187,17.2051
1305558272187,17.2335
1305558332187,17.1877
1305558392187,17.2360
1305558452187,17.1790
1305558512187,17.2176
1305558572187,17.2048
1305558632187,17.2050
1305558692187,17.1704
1305558752187,17.2074
1305558812187,17.1901
1305558872187,17.1076
1305558932187,17.1361
1305558992187,17.1723
1305559052187,17.1886
1305559112187,17.2078
1305559172187,17.1492
1305559232187,17.1939
1305559292187,17.2060
1305559352187,17.1920
1305559412187,17.1995
1305559472187,17.2250
1305559532187,17.1987
1305559592187,17.2439
1305559652187,17.2391
1305559712187,17.1697
1305559772187,17.1830
1305559832187,17.1901
1305559892187,17.1755
1305559952187,17.2310
1305560012187,17.2516
1305560072187,17.2549
1305560132187,17.2562
1305560192187,17.2528
1305560252187,17.2618
1305560312187,17.2348
1305560372187,17.2386
1305560432187,17.2263
1305560492187,17.2201
1305560552187,17.2329
1305560612187,17.2066
1305560672187,17.2145
1305560732187,17.2311
1305560792187,17.2418
1305560852187,17.2472
1305560912187,17.2182
1305560972187,17.2338
1305561032187,17.1879
1305561092187,17.2512
1305561152187,17.2549
1305561212187,17.2482
1305561272187,17.1787
1305561332187,17.2171
1305561392187,17.2207
1305561452187,17.2491
1305561512187,17.2014
1305561572187,17.2446
1305561632183,17.2401
1305561692183,17.2125
1305561752183,17.1653
1305561812183,17.1938
1305561872183,17.1962
1305561932183,17.1976
1305561992183,17.2065
1305562052183,17.2079
1305562112183,17.1634
1305562172183,17.2011
1305562232183,17.2417
1305562292183,17.1949
1305562352183,17.2415
1305562412183,17.2410
1305562472183,17.2309
1305562532183,17.2045
1305562592183,17.2843
1305562652183,17.2716
1305562712183,17.2419
1305562772183,17.2053
1305562832183,17.2019
1305562892183,17.2261
1305562952183,17.2457
1305563012183,17.2348
1305563072183,17.2128
1305563132183,17.2028
1305563192183,17.1931
1305563252183,17.1462
1305563312183,17.1592
1305563372183,17.2141
1305563432183,17.2301
1305563492183,17.2079
1305563552183,17.2179
1305563612183,17.2099
1305563672183,17.1690
1305563732183,17.1588
1305563792183,17.1901
1305563852183,17.2009
1305563912183,17.2159
1305563972183,17.1931
1305564032183,17.1966
1305564092183,17.2416
1305564152183,17.1589
1305564212183,17.2274
1305564272183,17.2547
1305564332183,17.2316
1305564392183,17.1672
1305564452183,17.2144
1305564512183,17.2196
1305564572183,17.2304
1305564632183,17.2908
1305564692183,17.2755
1305564752183,17.2381
1305564812183,17.2542
1305564872183,17.2363
1305564932183,17.2349
1305564992183,17.2616
1305565052183,17.2492
1305565112183,17.2572
1305565172183,17.2619
1305565232193,17.2080
1305565292193,17.2425
1305565352193,17.2530
1305565412193,17.2621
1305565472193,17.2179
1305565532193,17.2387
1305565592193,17.2068
1305565652193,17.2852
1305565712193,17.2546
1305565772193,17.2653
1305565832193,17.2638
1305565892193,17.2319
1305565952193,17.2506
1305566012193,17.2539
1305566072193,17.2428
1305566132193,17.2583
1305566192193,17.2237
1305566252193,17.2271
1305566312193,17.2222
1305566372193,17.2199
1305566432193,17.2409
1305566492193,17.2842
1305566552193,17.2211
1305566612193,17.2920
1305566672193,17.1939
1305566732193,17.1850
1305566792193,17.2223
1305566852193,17.1852
1305566912193,17.2381
1305566972193,17.2772
1305567032193,17.2365
1305567092193,17.2532
1305567152193,17.2597
1305567212193,17.2287
1305567272193,17.2785
1305567332193,17.2194
1305567392193,17.1806
1305567452193,17.2239
1305567512193,17.2528
1305567572193,17.2492
1305567632193,17.2516
1305567692193,17.2689
1305567752193,17.2747
1305567812193,17.2407
1305567872193,17.2301
1305567932193,17.2471
1305567992193,17.2449
1305568052193,17.2789
1305568112193,17.2732
1305568172193,17.1975
1305568232193,17.2602
1305568292193,17.2682
1305568352193,17.2054
1305568412193,17.2007
1305568472193,17.2028
1305568532193,17.2461
1305568592193,17.2629
1305568652193,17.1840
1305568712193,17.2206
1305568772193,17.1988
1305568832203,17.2211
1305568892203,17.2885
1305568952203,17.3129
1305569012203,17.2961
1305569072203,17.2791
1305569132203,17.2860
1305569192203,17.3243
1305569252203,17.2485
1305569312203,17.2505
1305569372203,17.2381
1305569432203,17.2415
1305569492203,17.2572
1305569552203,17.2343
1305569612203,17.1929
1305569672203,17.2020
1305569732203,17.2484
1305569792203,17.1935
1305569852203,17.2122